Terug naar catalogus

CZ-6A DEB

ActiefPO
NORAD 61312·DEBRIS·🇨🇳 China

Gelanceerd Aug 6, 2024 vanaf Taiyuan Satellite Launch Center

Loading…

Volgende Passages (komende 24 uur)

TLE

VersSource: Space-Track

Epoch: Sep 14, 2026, 12:18 UTC

1 61312U 24140TZ  26257.51258882  .00002301  00000-0  89597-3 0  9992
2 61312  89.1065 273.8734 0070310 291.2895  68.0802 14.28169524106705

Volg CZ-6A DEB in realtime met AllMySat

Download on the App Store